Location: Sternwarte_Laufen
(47.9344°N, 12.9346°E)
Time: 19:35:18
(UTC+02:00)

Envisat - Visible Passes

Search period start: 18 October 2018 00:00
Search period end: 28 October 2018 00:00
Orbit: 764 x 766 km, 98.2° (Epoch: 18 October)

Date Brightness Start Highest point End Pass type
(mag) Time Alt. Az. Time Alt. Az. Time Alt. Az.
18 Oct 2.9 19:51:08 10° SSE 19:56:13 80° ENE 20:01:20 10° NNW visible
18 Oct 5.7 21:33:01 10° WSW 21:35:52 15° W 21:38:44 10° NW visible
19 Oct 3.4 19:14:54 10° SE 19:19:36 40° ENE 19:24:21 10° N visible
19 Oct 4.7 20:54:16 10° SSW 20:58:44 30° W 21:03:12 10° NNW visible
20 Oct 4.2 18:39:26 10° ESE 18:43:12 21° ENE 18:46:58 10° NNE visible
20 Oct 3.4 20:16:46 10° S 20:21:47 62° W 20:26:51 10° NNW visible
21 Oct 2.9 19:40:02 10° SSE 19:45:03 65° ENE 19:50:06 10° N visible
21 Oct 5.5 21:21:02 10° SW 21:24:33 19° W 21:28:04 10° NW visible
22 Oct 3.7 19:04:01 10° SE 19:08:30 33° ENE 19:13:02 10° N visible
22 Oct 4.4 20:42:46 10° SSW 20:47:27 37° W 20:52:11 10° NNW visible
23 Oct 3.1 20:05:30 10° S 20:10:35 77° WSW 20:15:42 10° NNW visible
23 Oct 6.0 21:49:18 10° W 21:50:28 11° W 21:51:38 10° WNW visible
24 Oct 3.1 19:28:59 10° SE 19:33:54 53° ENE 19:38:51 10° N visible
24 Oct 5.2 21:09:16 10° SW 21:13:14 23° W 21:17:14 10° NW visible
25 Oct 3.9 18:53:11 10° ESE 18:57:25 27° ENE 19:01:40 10° N visible
25 Oct 4.0 20:31:21 10° S 20:36:13 46° W 20:41:07 10° NNW visible
26 Oct 2.9 19:54:19 10° SSE 19:59:24 87° ENE 20:04:31 10° NNW visible
26 Oct 5.8 21:36:36 10° WSW 21:39:07 14° W 21:41:39 10° WNW visible
27 Oct 3.3 19:17:59 10° SE 19:22:47 43° ENE 19:27:34 10° N visible
27 Oct 4.9 20:57:37 10° SSW 21:01:57 28° W 21:06:18 10° NW visible
